Theta_e
306 309 306 305 307 308 303 301 299 301 306 312 316 315 320 326 321 320 332 334 334 334 337 338 340 338 336 335 338 338 336 335 334 333 336 339 338 337 337 336 334 333 333 332
305 310 310 307 309 311 309 308 303 308 307 317 317 317 316 325 330 323 333 335 337 338 336 336 338 340 342 341 340 340 338 336 335 334 335 337 335 336 335 334 333 333 332 329
298 308 308 301 307 311 312 312 306 303 309 314 312 317 315 321 333 332 334 332 332 333 332 331 329 332 331 333 336 338 335 339 338 336 334 333 334 333 332 329 328 325 323 317
300 304 295 306 314 314 312 313 316 314 313 314 315 319 321 325 328 332 332 330 328 328 326 325 324 325 328 331 331 333 335 336 335 337 334 332 332 330 327 324 320 318 315 310
299 298 304 308 313 310 309 310 317 313 315 318 318 322 328 331 331 328 326 325 323 322 321 320 322 325 328 328 330 331 338 334 332 331 332 331 329 325 321 315 311 309 308 309
302 297 295 305 315 318 315 304 320 318 317 314 319 316 317 326 326 322 321 320 320 321 320 319 318 320 320 319 321 324 327 325 323 322 324 322 322 319 315 312 309 307 305 304
301 299 304 315 319 319 303 307 324 320 318 320 320 323 324 324 320 320 319 319 318 316 314 315 315 314 312 313 312 315 317 316 315 315 313 312 311 310 309 308 306 304 303 303
300 297 295 325 319 311 320 324 328 328 326 324 325 324 323 322 319 317 316 317 315 312 311 311 312 311 309 308 310 311 312 311 311 311 310 309 307 306 305 304 303 302 302 302
306 306 318 318 321 327 329 326 326 325 325 325 323 322 319 316 316 316 315 314 313 311 309 309 310 309 307 308 309 309 308 308 308 308 308 307 305 304 303 303 302 301 301 300
308 314 313 318 319 323 324 328 327 327 326 325 321 317 315 314 314 314 313 312 312 310 308 307 308 309 309 309 310 309 308 309 309 308 307 307 307 306 304 303 302 301 300 300
309 315 313 318 321 324 326 328 327 326 325 322 319 317 315 315 313 312 311 311 312 309 308 307 309 309 310 310 309 306 304 302 301 300 299 298 298 300 300 298 300 299 299 299
304 316 311 317 321 323 323 321 324 323 321 321 319 316 316 313 312 311 310 311 311 311 311 311 311 310 310 310 308 302 299 299 299 298 297 296 294 293 297 296 294 293 295 294
312 315 321 321 323 325 321 322 324 322 321 319 318 316 315 312 312 311 312 311 311 311 312 312 312 311 310 307 303 300 298 298 298 297 296 294 292 291 290 291 294 293 292 292
317 314 315 318 313 322 323 323 322 322 320 318 317 316 315 312 312 311 311 313 314 314 313 313 312 310 311 309 307 304 302 303 299 298 297 296 294 292 291 291 289 289 292 291
314 318 317 317 321 323 321 322 319 317 317 316 317 315 314 312 312 312 312 315 315 314 313 314 312 311 310 309 305 302 301 300 300 299 300 299 297 295 295 296 294 291 289 291
314 318 318 315 318 319 319 318 316 316 317 317 316 315 315 315 314 313 313 314 311 307 308 308 309 310 310 308 306 304 304 308 308 304 304 303 302 301 300 298 295 292 293 291
310 312 313 312 314 316 318 319 317 316 318 317 315 315 314 314 312 311 310 312 311 310 311 310 310 312 312 310 308 309 305 305 308 306 306 303 303 301 300 301 299 297 295 296
315 314 317 315 312 313 318 319 318 318 318 318 316 315 313 311 309 309 310 310 311 312 316 314 315 316 317 316 315 309 306 305 305 306 305 303 303 302 301 300 298 294 291 289
316 314 317 321 319 318 319 318 318 318 320 318 315 312 310 308 309 310 311 311 311 313 314 316 321 319 313 315 312 312 310 311 308 307 304 304 303 302 301 300 300 296 292 290
315 314 314 321 322 321 319 318 318 316 317 315 312 310 309 308 309 309 311 311 314 316 317 316 315 314 316 313 313 307 308 308 309 307 304 303 303 303 302 300 299 298 295 294
311 312 312 320 320 320 319 319 316 313 315 313 312 309 308 307 309 313 312 311 313 316 315 315 315 314 313 309 308 305 305 307 307 307 305 304 304 303 303 301 299 297 296 295
314 317 318 319 317 317 317 315 314 310 307 310 309 308 309 311 312 313 314 312 312 307 311 310 305 309 305 308 305 304 305 305 304 304 304 304 304 302 302 299 297 297 296 295
317 316 315 313 312 310 311 311 312 311 312 312 311 312 311 311 311 309 306 308 307 305 307 303 299 308 306 304 304 304 304 304 302 301 301 302 303 301 300 299 298 297 295 294
313 312 311 311 310 308 307 308 309 310 310 311 311 312 311 308 307 309 309 305 305 305 305 302 302 304 304 302 301 301 302 302 301 300 300 298 300 300 299 296 296 295 294 295
309 309 309 308 306 305 306 307 307 307 308 309 310 312 313 314 309 307 307 305 302 305 304 302 304 302 300 300 300 301 302 301 300 298 299 299 299 298 298 298 296 295 295 296
306 306 306 306 306 306 307 307 306 307 307 307 310 311 311 310 308 308 308 306 307 306 307 305 302 301 300 301 301 302 301 300 298 298 298 298 297 298 297 297 295 295 296 296
306 304 306 306 307 307 307 307 307 307 308 309 309 310 310 308 307 307 306 308 308 308 307 306 303 302 301 301 299 300 300 300 298 298 299 297 298 298 298 298 297 298 297 297
Wind_Speed
7 10 10 14 9 9 7 9 8 7 13 16 14 10 6 9 15 9 8 8 8 8 8 8 8 7 5 5 11 7 7 6 5 4 4 6 6 5 6 6 6 6 7 7
6 10 15 14 14 10 12 13 7 13 5 9 9 9 8 10 23 29 10 8 7 8 10 8 8 5 2 2 9 8 8 7 6 6 7 7 6 6 6 6 6 6 7 8
4 7 10 9 5 5 5 4 3 6 10 9 4 2 7 6 7 7 11 10 6 8 8 10 8 7 7 6 6 1 6 9 8 7 6 7 7 10 12 11 11 11 10 10
2 4 8 7 2 7 3 4 10 16 18 12 9 5 7 8 6 12 9 9 11 11 12 11 10 9 7 5 5 6 3 5 6 8 6 10 12 11 11 10 11 10 10 9
3 4 7 8 3 3 5 7 14 16 12 8 5 5 10 12 17 16 12 12 11 11 9 9 9 8 7 6 4 4 4 7 9 11 12 13 13 11 9 12 11 11 9 10
1 1 4 7 5 4 6 2 11 19 13 12 9 6 3 12 16 14 14 11 11 11 9 7 6 6 7 8 8 8 9 10 10 12 13 13 12 10 11 11 11 9 10 10
5 4 5 6 2 2 7 7 9 16 18 14 9 7 10 14 17 15 12 11 10 9 5 5 5 6 9 8 9 6 9 11 11 12 13 12 13 10 10 11 11 11 11 9
2 5 9 13 4 3 8 4 9 14 12 15 14 16 16 15 13 14 13 9 8 5 5 5 5 6 9 10 7 8 9 11 11 12 9 10 14 11 10 11 11 9 8 8
2 2 3 6 7 15 7 14 9 17 12 16 15 14 15 13 13 13 10 6 7 6 7 6 6 5 9 7 8 10 12 12 13 13 11 10 12 11 8 8 8 6 6 7
4 3 5 9 9 13 20 6 17 16 16 14 16 16 15 12 11 9 6 7 7 8 8 7 7 7 9 9 10 12 13 13 12 12 11 11 9 7 7 7 6 6 6 6
5 5 5 11 11 12 19 12 7 13 14 16 17 14 11 11 9 8 7 6 6 8 9 8 8 8 8 8 11 12 12 11 11 10 10 11 9 7 7 5 5 6 4 4
2 6 4 5 5 11 16 24 6 16 16 15 18 15 15 12 9 8 8 7 8 8 9 8 8 9 8 8 10 11 11 9 9 9 8 8 9 8 14 10 11 10 10 6
2 5 10 6 5 10 16 11 16 9 10 13 14 14 15 13 9 11 10 10 9 9 9 8 7 6 8 9 9 11 12 10 8 8 8 8 7 7 7 6 10 10 10 9
3 1 6 5 4 7 15 15 8 6 11 10 11 13 14 12 13 10 10 10 10 9 10 8 7 7 7 7 7 7 7 10 6 7 7 8 7 7 6 6 5 2 3 4
6 6 2 4 7 6 7 12 10 8 12 10 10 14 12 11 12 12 10 8 10 9 6 6 8 8 7 6 6 6 6 5 5 5 5 7 7 5 5 6 5 5 2 2
6 5 4 5 2 5 7 10 9 7 10 9 11 11 13 12 11 10 9 10 10 7 7 7 6 7 7 7 7 5 6 11 7 7 6 8 8 7 5 6 6 4 4 4
2 6 5 4 9 9 5 7 8 6 10 9 11 11 13 12 10 9 9 6 8 7 7 7 7 7 7 7 7 5 4 4 5 1 4 6 5 6 5 10 8 5 4 4
6 4 16 16 13 11 7 6 9 9 8 12 13 12 13 11 10 11 7 7 7 5 5 7 7 6 5 5 8 4 4 3 3 5 5 6 5 4 4 5 7 6 5 4
1 5 5 19 12 9 11 11 9 8 13 12 13 12 11 10 10 8 6 7 6 6 3 6 12 8 6 7 6 3 3 1 5 4 6 7 5 4 3 3 4 5 5 5
5 7 11 12 13 15 8 9 8 12 11 13 14 13 11 8 6 6 4 5 6 5 6 6 7 6 5 5 7 4 4 1 6 5 5 5 5 5 4 4 2 6 7 5
21 21 15 11 12 11 9 8 8 14 12 13 14 12 11 8 6 7 7 5 2 5 5 6 3 2 4 4 4 4 5 5 4 5 5 5 6 6 5 5 5 5 5 5
7 14 12 12 11 11 8 7 10 13 11 10 10 11 11 8 8 9 6 5 2 5 0 3 4 7 5 7 4 5 5 5 2 4 4 4 5 5 5 6 6 5 5 6
15 14 14 13 13 13 11 10 10 11 12 11 13 13 10 6 6 8 5 3 3 5 4 4 6 9 8 4 4 4 5 3 2 3 3 2 5 5 5 6 5 5 5 5
13 12 13 13 13 14 14 11 14 13 13 14 15 12 10 6 4 4 4 6 6 2 4 4 5 7 6 3 4 4 5 4 3 2 3 3 1 3 5 6 6 5 5 6
11 11 13 12 13 10 13 13 13 13 14 14 12 7 5 1 2 3 4 4 5 3 3 3 3 2 2 3 4 4 6 2 3 2 2 4 2 1 1 4 5 5 5 5
12 9 8 11 10 8 7 8 8 7 9 7 4 3 0 2 4 4 4 3 3 1 2 3 2 3 4 4 4 6 4 0 3 3 3 1 0 3 1 2 4 5 5 5
11 11 10 9 7 6 6 7 8 7 5 5 4 4 3 3 3 4 4 3 4 5 5 4 5 6 4 4 4 5 4 4 3 2 3 2 1 2 3 3 4 5 5 5
Wind_Direction
303 299 281 275 230 261 274 229 160 202 167 187 188 212 147 118 119 350 256 143 151 142 134 142 134 140 172 189 148 152 148 143 149 168 137 98 112 126 107 97 85 75 75 77
297 307 302 305 297 229 241 233 233 105 87 183 182 184 167 118 133 187 175 140 108 92 88 93 81 90 45 171 156 163 157 158 160 131 122 120 114 108 106 96 94 81 61 55
260 291 298 296 263 11 323 1 192 150 168 196 98 130 152 135 104 132 120 92 100 91 78 61 49 41 33 21 3 173 162 157 147 141 129 122 101 83 80 82 79 68 63 60
272 316 265 244 28 292 268 313 90 104 145 161 162 115 66 42 61 94 84 71 63 58 50 39 32 18 358 357 344 351 177 131 144 144 134 98 90 89 89 83 75 70 63 56
146 243 286 304 124 24 359 310 132 137 154 145 107 80 65 77 83 91 82 69 67 64 53 41 20 351 328 304 302 353 353 114 96 99 94 102 103 96 90 89 81 70 55 48
356 291 273 258 203 189 251 26 161 143 162 157 163 106 101 98 95 78 71 64 62 56 48 37 5 12 31 26 46 49 70 88 94 98 97 92 98 101 92 89 88 82 66 43
195 218 284 305 71 226 152 196 157 160 161 164 154 134 136 95 85 90 80 75 69 63 55 37 26 58 61 48 50 42 81 84 85 84 89 86 84 78 88 87 82 73 72 53
215 204 252 353 321 275 147 97 111 140 127 110 117 118 114 108 104 97 91 85 88 87 66 47 49 76 76 63 47 60 70 83 83 87 84 90 92 85 82 90 85 75 74 68
119 133 12 320 357 8 116 121 109 112 121 127 128 115 103 102 99 94 100 106 104 98 83 59 56 70 91 81 84 84 79 76 80 80 81 85 91 93 92 83 86 90 84 77
346 19 8 2 10 4 18 238 130 129 136 133 116 104 99 98 99 108 116 109 106 100 90 79 75 79 87 98 99 94 91 88 85 85 86 84 85 86 88 90 94 95 90 86
269 35 346 47 31 25 31 302 89 106 110 108 106 108 109 104 104 106 103 99 101 101 101 99 96 91 92 95 96 90 86 85 81 81 83 79 64 68 79 56 89 104 106 110
24 334 101 71 75 45 61 357 58 102 108 117 120 122 114 109 118 117 119 117 108 109 109 103 106 106 115 111 105 100 98 99 100 97 91 87 89 77 52 82 81 83 99 112
61 48 79 92 147 112 90 74 348 45 85 107 111 115 113 120 123 127 129 125 119 117 120 125 122 115 108 111 114 113 117 122 120 116 114 114 111 115 110 31 61 72 85 92
128 10 147 211 147 136 126 138 148 94 83 93 114 114 114 123 130 131 129 130 127 125 129 137 143 150 157 139 137 139 133 128 134 137 139 141 148 145 142 137 129 92 30 97
168 202 56 90 154 174 153 123 118 118 125 137 132 118 128 135 134 130 137 140 130 128 140 139 144 137 144 148 135 134 128 143 150 166 167 159 157 165 168 145 130 128 106 4
175 158 168 144 185 58 146 132 129 149 143 134 130 131 132 133 129 129 134 136 133 139 152 144 149 165 148 153 167 174 197 210 176 181 187 169 173 190 157 129 131 149 165 184
189 144 145 164 148 140 172 122 128 136 140 134 123 137 131 120 122 131 134 134 137 157 164 162 176 169 165 174 187 214 137 123 133 144 123 110 115 117 109 137 153 171 189 184
224 238 189 167 170 176 168 157 140 153 128 137 142 142 134 139 154 152 152 148 142 193 188 183 178 153 152 155 188 167 150 176 143 118 98 97 107 111 116 120 139 156 168 183
68 337 270 172 180 181 181 151 160 128 130 139 135 144 142 144 159 158 143 145 165 141 93 93 93 91 68 47 58 81 65 73 132 123 118 129 132 145 145 146 135 170 157 160
51 354 278 161 169 149 140 138 129 113 129 139 141 145 140 136 141 138 120 99 99 96 98 95 94 100 99 67 37 3 347 276 161 148 149 158 159 167 186 200 193 159 171 172
142 218 255 142 137 134 123 123 113 130 135 142 145 147 143 151 140 121 92 93 92 130 95 74 88 88 61 54 26 9 5 348 123 165 179 181 176 187 190 189 178 148 154 158
166 158 128 97 95 91 90 98 110 115 112 114 120 123 119 107 98 80 74 118 201 52 356 103 81 74 60 40 14 359 338 322 233 149 205 212 194 194 179 164 173 180 159 160
74 93 94 94 98 92 80 81 92 105 105 115 116 103 100 94 100 110 95 30 54 18 72 80 70 54 30 20 0 348 330 315 55 23 10 308 156 166 162 172 169 147 151 155
81 90 95 97 95 95 95 87 88 90 94 95 90 93 96 93 63 67 111 120 130 123 108 108 78 53 32 349 336 323 324 281 90 22 324 288 198 178 151 159 152 148 139 144
97 98 98 102 106 103 100 103 98 95 93 88 83 76 77 41 154 161 131 131 128 100 125 178 134 51 339 306 303 297 294 212 112 94 19 355 302 123 61 180 162 171 169 179
105 92 95 96 96 96 98 99 97 101 101 102 86 104 232 58 104 116 116 118 133 268 276 215 232 241 253 277 291 294 281 59 190 231 234 247 73 343 318 117 169 169 170 174
91 93 94 94 90 92 99 113 120 122 131 140 167 180 173 157 151 151 168 186 210 224 239 209 212 219 228 248 281 292 293 300 252 213 116 117 34 315 285 244 205 191 196 193